CAPE1
1 31130U 07012P 13268.68627362 .00000603 00000-0 14472-3 0 8638
2 31130 097.9080 255.3202 0101844 115.4602 245.7175 14.53622520341378
COMPASS
1 32787U 08021E 13268.75692333 .00001324 00000-0 15784-3 0 7374
2 32787 097.7418 324.6782 0013502 337.8712 022.1919 14.85883152292898
AAUSAT2
1 32788U 08021F 13268.66583575 .00001714 00000-0 20010-3 0 7216
2 32788 097.7427 325.3027 0013038 337.3143 022.7495 14.86375371292925
DO-64
1 32789U 08021G 13269.45347667 .00004334 00000-0 46250-3 0 7546
2 32789 097.7586 330.4695 0012207 326.3188 103.1728 14.89291012293199
CO-66
1 32791U 08021J 13269.80466356 .00001261 00000-0 15400-3 0 7173
2 32791 097.7416 324.9227 0014023 335.7660 087.8593 14.84949999292950
RS-30
1 32953U 08025A 13269.63578399 .00000010 00000-0 00000 0 0 2485
2 32953 082.5080 005.1009 0018845 014.7463 345.4163 12.43037238242516
METEOR-M
1 35865U 09049A 13269.69760288 -.00000029 00000-0 60811-5 0 8437
2 35865 098.5923 319.5727 0003043 125.2915 234.8549 14.21892912208895
RS-38
1 35869U 09049E 13269.71318329 .00000043 00000-0 38712-4 0 7965
2 35869 098.5827 319.4710 0005209 130.6714 229.4904 14.22145848208925
JUGNU
1 37839U 11058B 13269.48064576 .00000390 00000-0 66865-4 0 4707
2 37839 019.9623 053.0145 0019202 319.6352 085.4935 14.12182941101237
SRMSAT
1 37841U 11058D 13269.75688218 .00000364 00000-0 55721-4 0 4705
2 37841 019.9727 065.4065 0011940 272.5728 174.3995 14.10249139101121
RAX-2
1 37853U 11061D 13269.31144913 .00003990 00000-0 30202-3 0 6046
2 37853 101.6976 169.8159 0232917 097.3095 016.8461 14.84321580103448
AUBIESAT
1 37854U 11061E 13268.34275450 .00004687 00000-0 34552-3 0 5933
2 37854 101.7012 169.4822 0232586 098.4185 023.4898 14.85097630103320
HRBE
1 37855U 11061F 13269.31349257 .00004151 00000-0 30904-3 0 5998
2 37855 101.7012 170.5855 0233715 096.2404 019.9799 14.84732073103455
RS-39
1 38051U 11062C 13269.89945188 .00014347 00000-0 42175-3 0 8316
2 38051 051.6348 078.6404 0009898 272.5218 239.6302 15.35305197 93394
E-STAR
1 38079U 12006C 13269.84031747 .00064935 37064-5 12291-2 0 4782
2 38079 069.4723 296.9898 0575511 001.2567 046.7058 14.56116607 84498
GOLIAT
1 38085U 12006J 13269.86478342 .00055647 35118-5 10568-2 0 4140
2 38085 069.4744 299.9857 0587484 002.7012 357.6954 14.53563864 84418
HORYU-2
1 38340U 12025D 13268.83904657 .00001623 00000-0 27159-3 0 6200
2 38340 098.2277 217.4253 0011395 297.5489 062.4674 14.71177664 72914
RS-40
1 38736U 12041D 13269.66143903 .00000010 00000-0 00000 0 0 3846
2 38736 082.4743 091.8594 0022114 104.1037 256.2494 12.42871196 52852
PROITERES
1 38756U 12047B 13269.85214711 .00000477 00000-0 79900-4 0 1633
2 38756 098.2469 348.7344 0013374 137.4932 222.7301 14.74339596 56378
RAIKO
1 38852U 98067CN 13218.07382584 .24681979 12625-4 36599-3 0 3409
2 38852 051.6160 184.0336 0004489 261.9162 100.6538 16.48474690 47849
FITSAT 1
1 38853U 98067CP 13184.86912902 .06638326 12312-4 50483-3 0 3153
2 38853 051.6252 351.6077 0011722 245.9321 114.2104 16.39337660 42708
TechEdSat
1 38854U 98067CQ 13124.93253577 .11592855 12481-4 94246-3 0 2908
2 38854 051.6449 297.0261 0010505 310.8629 049.0629 16.38844728 33294
F 1
1 38855U 98067CR 13129.77714356 .27424026 12535-4 30797-3 0 2871
2 38855 051.5085 272.4145 0008326 194.2908 166.5495 16.49710473 33949
WeWish
1 38856U 98067CS 13069.98095549 .16701328 12537-4 10063-2 0 2487
2 38856 051.6166 215.0521 0008325 316.0438 044.8765 16.41348316 24586
OSSI-1
1 39131U 13015B 13188.41684431 .01502874 74059-5 44818-3 0 85
2 39131 064.8841 114.8425 0051126 026.6892 350.0589 16.22925119 12374
BEESAT-3
1 39134U 13015E 13268.57412685 .00003282 00000-0 26887-3 0 3801
2 39134 064.8772 253.1479 0002672 241.9992 118.0864 15.00993265 23890
BEESAT-2
1 39136U 13015G 13269.91093526 .00003158 00000-0 25982-3 0 3730
2 39136 064.8776 248.9783 0002561 239.9025 120.1851 15.00905732 24092
